Regional Weather Roundup
Issued by NWS Green Bay, WI

Home | Current Version | Previous Version | Text Only | Print | Product List | Glossary On
Versions: 1 2 3 4 5 6 7 8 9 10 11 12 13 14 15 16 17 18 19 20 21 22 23 24 25 26 27 28 29 30 31 32 33 34 35 36 37 38 39 40 41 42 43 44 45 46 47 48 49 50
000
ASUS43 KGRB 192311
RWRGRB

NORTH-CENTRAL AND NORTHEAST WISCONSIN REGIONAL WEATHER ROUNDUP
NATIONAL WEATHER SERVICE GREEN BAY WI
600 PM CDT THU APR 19 2018

WIZ005-009-010>012-018-019-200000-
NORTH CENTRAL WISCONSIN

CITY           SKY/WX    TMP DP  RH WIND       PRES   REMARKS
IRONWOOD       FAIR      49   4  16 NW8       30.40F
MANITOWISH WTR FAIR      48   6  18 N6        30.38S
ARBOR VITAE    FAIR      51   8  18 NW7       30.37S
EAGLE RIVER    FAIR      49   5  16 N8        30.36S
LAND O LAKES   FAIR      47   7  19 N6        30.39R
RHINELANDER    FAIR      51   9  18 VRB7      30.37R
PHILLIPS       FAIR      52   9  18 NW5       30.38R
ANTIGO         FAIR      49  13  24 CALM      30.37R
TOMAHAWK       FAIR      52   4  14 N8        30.38R
MERRILL          N/A     54  11  18 NW6       30.37S
$$

WIZ013-073-200000-
NORTHEAST WISCONSIN

CITY           SKY/WX    TMP DP  RH WIND       PRES   REMARKS
IRON MOUNTAIN  FAIR      51  10  19 N14       30.34R
MARINETTE      FAIR      48  12  23 SE5       30.37R
OCONTO         FAIR      46  16  30 E7        30.37R
$$

WIZ017-030-035>037-045-200000-
CENTRAL WISCONSIN

CITY           SKY/WX    TMP DP  RH WIND       PRES   REMARKS
MEDFORD        FAIR      48  16  28 W13       30.38R
WAUSAU         FAIR      48  21  34 W7        30.36R
MOSINEE        MOSUNNY   46  23  39 SW10      30.40R
MARSHFIELD     FAIR      47  19  33 W8        30.39S
WISC RAPIDS    FAIR      48  18  30 NW8       30.41S
STEVENS POINT  FAIR      47  19  32 W7        30.40S
WAUPACA        FAIR      52  19  28 W9        30.39R
SHAWANO        FAIR      55  14  20 SE7       30.35R
CLINTONVILLE   FAIR      53   9  17 NW12      30.35R
WAUTOMA        FAIR      49  17  28 NW12      30.41R
$$

WIZ038-039-048-051-200000-
FOX VALLEY

CITY           SKY/WX    TMP DP  RH WIND       PRES   REMARKS
NWS GREEN BAY  FAIR      52  16  24 SW9       30.37R
APPLETON       MOSUNNY   48  18  29 W9        30.36R
OSHKOSH        FAIR      49  21  33 W5        30.38S
FOND DU LAC    FAIR      48  24  39 SW8       30.39S
$$

WIZ022-050-052-200000-
EAST CENTRAL WISCONSIN

CITY           SKY/WX    TMP DP  RH WIND       PRES   REMARKS
EPHRAIM        FAIR      48   6  18 N9G17     30.35R
WASHINGTON ISL FAIR      44  15  31 N13       30.35R
STURGEON BAY   FAIR      50   7  17 N6        30.37R
MANITOWOC      FAIR      48  21  34 W10       30.38R
SHEBOYGAN      FAIR      47  26  44 W9        30.38R
$$

LMZ563-521-522-541>543-200000-
LAKESHORE

STATION/POSITION TIME  TEMP    WIND        PRES    VSBY  WAVE
                       AIR SEA DIR/SP/G                  HT/PER
                 (UTC) (F)     (DEG/KT/KT) (MB)    (MI)  (FT/S)
SHEBOYGAN LKSHOR 2300   50     270/ 12/ 14 1029.0R
KEWAUNEE LKSHORE 2248   41     160/  5/  6 1027.5R
NORTHPORT PIER   2240   41                 1027.4S
SISTER BAY LKSHO 2212   50      10/ 14/ 17   N/A
MENOMINEE LKSHOR 2248   43     190/  6/  7 1027.8R
$$




USA.gov is the U.S. government's official web portal to all federal, state and local government web resources and services.